Location: Newark
(50.2292°N, 18.1272°E)
Time: 16:56:04
(UTC+00:00)

ISS - Visible Passes

Search period start: 30 September 2020 00:00
Search period end: 10 October 2020 00:00
Orbit: 419 x 421 km, 51.6° (Epoch: 01 October)

Date Brightness Start Highest point End Pass type
(mag) Time Alt. Az. Time Alt. Az. Time Alt. Az.
30 Sep -3.7 18:17:27 10° WNW 18:20:48 66° SSW 18:21:09 60° SSE visible
01 Oct -3.8 17:30:08 10° WNW 17:33:32 84° SSW 17:35:42 20° ESE visible
01 Oct -1.2 19:07:16 10° W 19:08:40 18° WSW 19:08:40 18° WSW visible
02 Oct -2.6 18:19:47 10° W 18:22:53 34° SSW 18:23:16 32° SSW visible
03 Oct -3.0 17:32:24 10° WNW 17:35:39 47° SSW 17:37:54 18° SE visible
04 Oct -1.4 18:22:33 10° W 18:24:44 16° SW 18:25:36 15° SSW visible
05 Oct -1.7 17:34:49 10° W 17:37:35 23° SW 17:40:20 10° SSE visible
06 Oct -2.2 16:47:17 10° W 16:50:22 33° SSW 16:53:27 10° SE visible
07 Oct -0.7 17:38:26 10° WSW 17:39:17 11° SW 17:40:07 10° SSW visible
08 Oct -0.9 16:49:58 10° W 16:52:09 16° SW 16:54:18 10° S visible
